Location: Palau
(42.3086°N, 3.1507°E)
Time: 16:53:16
(UTC+00:00)

X-37B - Pass Details

Date: 15 March 2021
Orbit: 380 x 394 km, 45.0° (Epoch: 07 April)

Event Time Altitude Azimuth Distance (km) Brightness Sun altitude
Rises 20:09:52 0° 278° (W) 2,273 5.7 -25.4°
Reaches altitude 10° 20:11:59 10° 284° (WNW) 1,421 4.4 -25.7°
Enters shadow 20:13:29 24° 296° (WNW) 857 3.0 -26.0°
